Temp_Advection
nan nan nan nan nan nan nan nan nan nan nan nan nan nan nan nan nan nan nan nan nan nan nan nan nan nan nan nan nan nan nan nan nan nan nan nan nan nan nan nan nan nan nan nan nan nan nan nan nan nan nan nan nan nan nan nan nan nan nan nan nan nan nan nan nan nan nan nan nan
nan 0 0 0 -0 -1 -1 -1 -1 -1 -1 -1 1 2 2 1 0 -0 -0 -1 -1 -1 -0 0 0 0 0 0 0 1 1 0 -0 -0 0 0 -1 -1 -1 -0 0 0 0 0 0 0 1 0 0 0 0 0 0 0 0 -0 -0 -0 1 1 0 -0 -0 0 0 -0 -0 -0 nan
nan 0 0 -0 -1 -1 -1 -1 -1 -1 -1 -0 1 2 1 0 -1 -1 -1 -1 -1 -0 0 0 0 0 0 0 0 0 0 -0 -0 0 0 -0 -1 -1 -0 0 0 0 0 1 1 1 0 0 -0 -0 0 0 0 0 0 -0 -0 0 1 1 0 -0 -0 0 0 0 0 0 nan
nan 0 0 -0 -1 -1 -1 -1 -1 -1 -1 0 1 1 0 -0 -1 -1 -1 -0 0 1 1 1 0 0 0 0 0 0 -0 -0 0 0 0 -0 -1 -1 -0 0 0 1 1 1 1 1 0 -0 -0 -0 -0 -0 -0 -0 -0 -0 -0 0 1 1 0 -0 -0 0 0 0 0 0 nan
nan -0 -0 -1 -1 -1 -1 -1 -1 -1 0 1 1 1 -0 -1 -1 -1 -0 -0 0 1 1 1 1 0 0 1 0 0 -0 0 0 0 0 -0 -1 -0 0 0 0 1 1 1 1 0 0 0 0 -0 -1 -1 -1 -0 -0 -0 -0 0 1 1 0 -0 -0 0 0 0 0 0 nan
nan -0 -0 -1 -1 -1 -1 -1 -0 -0 0 1 1 0 -0 -1 -1 -0 -0 -0 -0 0 0 0 0 0 0 0 0 0 0 1 0 0 0 -0 -0 -0 0 0 0 1 1 1 1 0 0 0 -0 -0 -0 -0 -0 -0 -0 -0 -0 0 1 1 0 0 -0 -0 0 0 0 0 nan
nan -0 -0 -1 -1 -1 -0 -0 -0 -0 0 0 -0 -0 -0 -0 -0 0 0 -0 -0 0 -0 0 0 1 1 -0 -0 -0 0 0 0 0 -0 -0 -0 -0 0 0 0 1 1 1 1 0 0 -0 -0 -0 -0 -0 -0 0 -0 -0 0 1 1 1 0 -0 -0 -0 -0 0 0 0 nan
nan -0 -0 -0 -1 -1 -0 -0 -1 -1 -1 -1 -0 -0 -0 0 0 0 0 -0 -0 -0 0 0 0 0 0 0 0 -0 -0 -0 -0 -0 -1 -1 -0 0 0 0 0 1 1 1 0 0 0 -0 -0 0 0 0 0 -0 -0 0 0 1 1 0 0 -0 -1 -0 -0 -0 0 0 nan
nan -0 -0 -0 -0 -0 -1 -1 -1 -1 -1 -0 0 1 0 0 -0 -0 -0 -0 -0 -0 0 0 0 -0 0 1 1 -0 -0 -1 -1 -1 -1 -1 -0 0 0 0 0 0 0 0 1 1 0 0 0 0 0 0 -0 -0 0 0 0 0 0 0 -0 -1 -1 -0 -0 0 0 -0 nan
nan -0 -0 -0 -1 -1 -1 -1 -1 -0 0 1 1 1 0 -0 -0 -0 -0 -0 0 0 0 -0 -0 -0 0 0 0 -0 -1 -1 -1 -1 -1 -0 0 0 0 0 0 0 0 1 1 1 0 0 -0 0 0 0 0 0 0 0 0 0 0 0 -0 -1 -1 -0 0 0 0 0 nan
nan -0 -0 -1 -1 -1 -0 1 1 1 1 1 0 0 -0 -0 -0 -0 -0 0 0 0 -0 -0 -0 0 0 -0 -0 -0 -1 -1 -1 -1 -0 0 1 1 0 0 -0 -0 0 1 1 0 0 -0 -0 -0 0 1 1 0 0 0 0 0 0 -0 -1 -1 -0 -0 0 0 0 0 nan
nan -0 -1 -0 -0 1 1 1 0 0 0 0 -0 -0 -0 -0 -0 -0 0 0 0 -0 -0 -0 -0 0 0 -0 -0 -1 -1 -1 -0 -0 0 1 1 1 0 -0 -0 0 0 1 1 0 -0 -0 -0 0 1 1 1 0 0 0 0 0 0 -0 -1 -1 -0 0 0 0 0 0 nan
nan -0 -0 -0 0 1 1 -0 -0 -0 -0 -0 -0 -0 -0 0 -0 -0 -0 -0 -0 -0 -0 -0 -0 0 0 -0 -1 -1 -0 -0 0 0 1 1 1 0 -0 -0 -0 0 0 0 0 -0 -0 -0 0 1 1 1 0 0 0 0 0 -0 -0 -1 -1 -0 -0 0 0 0 0 0 nan
nan -0 -0 0 1 0 -0 -1 -0 -0 -0 -0 -0 0 0 0 -0 -0 -0 -0 -0 -0 -0 0 0 0 -0 -0 -0 -0 -0 0 0 1 1 1 0 0 0 -0 -0 0 0 0 0 -0 -0 0 1 1 1 0 0 0 0 -0 -0 -0 -0 -1 -1 -0 -0 0 0 0 0 0 nan
nan -0 -0 0 0 -0 -1 -1 -0 -0 -0 -0 -0 0 -0 -0 -0 -0 -0 -0 -0 -0 0 0 -0 -0 -0 -0 -0 0 0 0 0 1 1 0 0 0 0 -0 -0 0 0 0 -0 -0 -0 1 1 0 0 -0 0 -0 -0 -1 -0 -0 -0 -0 -0 -0 0 0 0 0 0 0 nan
nan -0 -0 0 -0 -0 -0 -0 -0 -0 -0 -0 -0 -0 -0 -0 -0 -0 -0 -0 0 0 0 0 -0 0 0 0 -0 -0 -0 0 0 0 0 0 0 -0 -0 -0 -0 0 0 -0 -0 -0 0 1 0 0 -0 -0 -0 -0 -1 -1 -0 -0 -0 -0 -0 0 0 1 1 0 0 0 nan
nan -0 -0 -0 -0 -0 -0 -0 -0 -0 -0 0 -0 -0 -0 -0 -0 -0 -0 -0 0 0 0 0 0 0 -0 -0 -0 -0 -0 0 0 0 0 -0 -0 -0 -0 -0 0 0 0 -0 -0 0 0 0 0 0 0 0 -0 -1 -0 -0 -0 -0 -0 -0 0 0 1 1 0 0 0 0 nan
nan -0 -0 -0 -0 -0 -0 -0 -0 -0 -0 0 -0 -0 -0 0 -0 -0 -0 -0 0 -0 -0 -0 -0 -0 -0 -1 -1 -0 -0 0 0 0 -0 -0 -0 -0 0 0 1 1 0 -0 0 0 0 0 0 0 0 -0 -0 -0 -0 -0 -0 -0 -0 0 0 1 0 0 0 0 0 -0 nan
nan -0 -0 -0 -0 -0 -0 -0 -0 0 1 0 0 -0 -0 -0 0 -0 -0 -0 -0 -1 -1 -0 -0 -0 -0 -1 -0 0 0 1 0 -0 -0 -0 0 0 1 1 1 0 0 0 1 0 0 0 -0 -0 -0 -0 -0 0 0 -0 -0 -0 0 0 0 0 0 0 0 0 0 0 nan
nan -0 -0 -0 -0 0 -0 0 0 1 1 0 -0 -0 -0 -0 0 -0 -0 -0 -1 -1 -1 -0 -0 -0 -0 -0 0 1 1 0 -0 -0 0 0 1 1 1 1 0 0 0 0 1 0 0 0 -0 -0 -0 0 0 0 -0 -0 -0 0 1 0 0 0 0 0 -0 -0 -0 0 nan
nan -0 0 0 -0 -0 -0 0 0 0 0 -0 -0 -0 -0 -0 -0 -0 -0 -1 -1 -1 -0 -0 0 0 0 0 1 1 0 -0 0 0 0 1 1 1 0 0 0 -0 -0 0 0 0 0 0 0 0 0 1 0 -0 -0 -0 0 1 0 0 0 0 -0 -0 -0 -0 -0 -0 nan
nan -0 0 0 -0 -0 -0 -0 -0 -0 -0 -0 -0 -0 -0 -0 -0 -0 -0 -0 -0 -0 0 0 0 0 0 0 0 0 0 0 0 0 0 0 0 0 -0 -0 -0 -0 0 0 0 0 0 0 1 1 1 1 0 -0 -0 0 1 0 0 -0 -0 -0 -0 -0 -0 -0 -0 -0 nan
nan 0 0 -0 -0 -0 -0 -0 -0 -0 -0 -0 -0 -0 -0 -0 -0 0 0 0 0 0 0 0 -0 -0 0 0 0 0 0 0 0 0 0 0 0 -0 -0 -0 -0 -0 0 0 0 0 0 1 0 0 0 0 -0 -0 0 1 0 0 -0 -0 -0 -0 -0 -0 -0 -0 -0 -0 nan
nan -0 0 0 -0 -0 -0 -0 -0 -0 -0 -0 0 0 0 0 0 0 0 -0 -0 -0 -0 -0 -0 0 0 0 0 0 0 0 0 0 -0 -0 0 0 0 -0 -0 -0 0 -0 0 0 0 0 -0 -0 -0 -0 -0 0 1 0 0 -0 -0 -0 -0 -0 -0 -0 -0 -0 -0 0 nan
nan -0 -0 -0 -0 -0 0 0 0 0 0 0 1 1 0 0 0 -0 -0 -0 -0 -0 0 0 0 0 0 0 0 0 0 0 0 -0 -0 -0 -0 0 -0 -0 -0 -0 -0 -0 -0 0 0 -0 -0 -0 -0 -0 0 0 0 0 0 0 -0 -0 -0 -0 -0 -0 -0 -0 0 0 nan
nan -0 -0 -0 -0 -0 0 0 0 0 0 0 0 0 0 0 -0 -0 -0 -0 0 0 0 0 0 0 0 0 0 0 0 0 0 0 0 -0 -0 -0 -0 -0 -0 -0 -0 -0 -0 -0 0 0 0 0 0 0 0 0 0 0 0 -0 -0 -0 -0 -0 -0 -0 0 0 0 0 nan
nan -0 0 -0 -0 -0 0 0 0 0 -0 -0 0 0 0 -0 -0 -0 -0 0 0 0 0 0 0 0 0 0 0 0 -0 -0 -0 0 0 -0 -0 -0 -0 -0 -0 -0 -0 -0 0 0 0 0 0 0 -0 0 0 0 -0 -0 -0 -0 -0 -0 -0 -0 -0 0 0 0 0 0 nan
nan -0 0 0 -0 -0 -0 -0 -0 -0 -0 0 0 0 -0 -0 -0 -0 0 0 0 0 0 0 0 0 0 0 0 0 0 0 -0 -0 -0 -0 -0 0 0 0 0 0 0 0 1 1 0 0 -0 -0 -0 -0 -0 -0 -0 -0 -0 -0 -0 -0 -0 0 0 0 0 0 0 0 nan
nan -0 -0 0 0 -0 -0 -0 -0 -0 0 0 0 -0 -0 -0 -0 0 0 0 0 0 0 0 0 -0 -0 -0 0 0 0 0 0 0 0 0 0 0 0 1 1 1 1 1 1 0 -0 -0 -1 -1 -0 -0 -0 -0 -0 -0 -0 -0 -0 -0 0 0 0 0 0 0 0 -0 nan
nan -0 -0 -0 -0 -0 -0 -0 0 0 0 -0 -0 -0 -0 0 0 0 0 0 0 -0 -0 -0 -0 -0 -0 -0 -0 -0 -0 0 0 0 0 0 0 0 1 1 1 1 1 0 0 -0 -1 -1 -1 -0 -0 0 0 0 -0 -0 -0 -0 -0 0 0 0 0 0 0 -0 -0 -0 nan
nan -0 -0 -0 0 0 0 0 0 -0 -0 -0 0 0 0 0 -0 -0 -0 -0 -0 -0 -0 -0 -0 -0 -0 -0 -0 -0 -0 -0 0 0 0 0 0 0 0 0 0 0 0 0 -0 -0 -1 -1 -0 0 0 0 0 0 0 -0 -0 -0 0 0 0 0 0 -0 -0 -0 -0 -0 nan
nan -0 0 0 0 0 0 -0 -0 -0 -0 0 0 -0 -0 -0 -0 -0 -0 -0 -0 -0 -0 -0 0 0 0 0 0 0 0 0 -0 -0 -0 -0 -0 -0 -0 -0 -0 -0 -0 -0 -0 -0 -0 -0 0 0 0 0 0 0 -0 -0 -0 0 0 0 0 -0 -0 -0 -0 -0 0 0 nan
nan 0 0 0 -0 -0 -0 -0 -0 -0 -0 -0 -0 -0 -0 -0 -0 -0 -0 -0 -0 0 0 0 0 1 1 1 0 0 0 0 -0 -0 -0 0 0 -0 -0 -0 -0 -0 -0 -0 -0 0 0 0 0 0 0 0 0 -0 -0 -0 0 0 -0 -0 -0 -0 -0 -0 0 0 0 0 nan
nan 0 -0 -0 -0 -0 -0 -0 -0 -0 -0 -0 0 -0 -0 -0 -0 -0 -0 -0 -0 -0 0 0 0 0 0 0 -0 -0 -0 -0 -0 -0 0 0 0 -0 -0 -0 -0 -0 0 0 0 0 0 0 0 0 0 -0 -0 -0 -0 -0 -0 -0 -0 -0 -0 0 0 0 0 0 1 0 nan
nan 0 -0 -0 -0 -0 -0 -0 -0 -0 0 0 0 0 0 0 -0 -0 -0 -0 -0 -0 -0 -0 -0 -0 -0 -0 -0 -0 0 -0 -0 -0 -0 -0 -0 -0 -0 -0 0 0 0 0 0 0 0 0 -0 -0 -0 -0 -0 -0 -0 -0 -0 -0 -0 0 0 0 0 0 0 0 0 0 nan
nan -0 0 0 0 -0 -0 -0 -0 -0 0 0 0 0 0 0 0 -0 -0 -0 -0 -0 -0 -0 -0 -0 -0 -0 0 0 -0 -0 -0 -0 -0 -0 -0 -0 -0 0 0 0 0 0 0 0 -0 -0 -0 -0 -0 -0 -0 -0 -0 -0 -0 0 0 0 0 0 0 0 0 0 0 0 nan
nan 0 0 0 0 0 0 -0 -0 -0 0 0 -0 -0 -0 0 -0 -0 -0 0 -0 -0 -0 -0 -0 -0 0 -0 -0 -0 -0 0 0 -0 -0 -0 -0 -0 0 0 0 0 0 -0 -0 -0 -0 -0 -0 -0 -0 -0 -0 -0 -0 -0 0 0 0 0 0 0 0 0 0 0 0 0 nan
nan -0 -0 0 0 0 0 0 -0 -0 0 0 0 0 0 -0 -0 -0 -0 0 -0 -0 -0 -0 -0 -0 -0 -0 -0 -0 -0 -0 -0 0 0 0 0 0 0 0 0 -0 -0 -0 -0 -0 -0 -0 -0 -0 -0 -0 -0 -0 -0 0 0 0 0 0 0 0 0 0 0 0 0 -0 nan
nan -0 -0 -0 -0 0 0 0 0 -0 0 0 0 0 0 0 0 -0 -0 -0 -0 -0 -0 -0 -0 -0 -0 -0 -0 -0 -0 -0 -0 0 0 0 0 0 0 -0 -0 -0 -0 0 0 -0 -0 -0 -0 0 0 0 0 0 0 0 0 0 0 0 0 1 0 0 0 -0 -0 -0 nan
nan 0 0 -0 -0 -0 -0 -0 -0 -0 0 0 0 0 0 0 0 0 0 -0 -0 -0 -0 -0 0 0 0 0 0 0 0 -0 -0 -0 -0 0 0 -0 -0 -0 -0 -0 -0 -0 0 0 0 0 0 0 0 0 0 0 0 0 0 0 0 0 1 0 0 -0 -0 -0 -0 -0 nan
nan nan nan nan nan nan nan nan nan nan nan nan nan nan nan nan nan nan nan nan nan nan nan nan nan nan nan nan nan nan nan nan nan nan nan nan nan nan nan nan nan nan nan nan nan nan nan nan nan nan nan nan nan nan nan nan nan nan nan nan nan nan nan nan nan nan nan nan nan
Wind_Speed
22 22 22 23 24 24 24 24 24 24 25 25 27 29 28 25 23 24 24 24 24 22 20 21 25 28 29 28 25 24 24 25 26 27 27 28 27 26 24 24 24 24 23 21 20 21 23 24 23 21 21 22 22 22 22 21 21 20 20 22 24 25 26 26 26 25 24 23 22
21 21 21 22 23 22 22 21 22 22 23 24 26 27 25 23 22 23 23 23 23 22 21 22 25 28 29 28 26 25 24 25 26 27 28 28 27 25 24 23 23 23 23 22 20 21 23 25 23 22 21 22 22 23 22 22 22 20 20 21 23 24 24 24 24 23 22 21 20
19 19 20 21 22 21 20 20 20 21 23 24 25 24 22 21 20 22 23 24 24 24 23 23 25 28 30 28 27 26 25 25 26 27 27 27 26 25 24 23 23 23 23 22 20 21 23 26 25 24 23 23 23 23 23 23 23 22 21 21 22 22 22 22 21 20 19 18 18
17 18 19 20 20 20 19 20 20 21 22 23 23 22 20 18 19 21 23 24 24 23 22 22 24 27 29 29 28 26 25 25 25 26 26 26 25 25 24 22 22 22 23 22 21 21 23 26 27 27 26 25 25 24 25 25 25 23 22 20 21 21 21 20 19 18 17 17 16
16 17 17 18 19 19 20 20 20 20 21 22 22 20 19 17 17 19 21 23 23 22 20 19 21 24 27 29 29 27 25 24 24 24 24 24 25 24 23 22 22 22 22 22 21 20 22 25 28 29 28 27 26 26 27 27 27 25 23 21 20 20 20 19 18 17 16 16 15
14 15 16 17 18 19 20 20 19 18 18 19 19 18 17 17 16 17 19 21 22 21 18 17 19 22 24 27 28 28 26 24 23 23 23 23 23 23 23 22 22 22 22 22 21 20 20 23 28 30 30 28 28 28 28 29 28 26 23 21 20 20 19 19 18 17 16 16 15
12 13 15 16 18 19 20 19 17 16 16 16 15 15 16 16 15 16 18 21 21 20 18 16 18 20 22 25 27 28 27 25 24 23 22 22 23 23 23 22 22 22 23 22 21 20 19 21 26 30 31 30 29 29 29 29 28 24 21 19 19 19 19 18 17 17 16 16 16
11 13 14 16 17 17 17 16 16 16 16 15 14 13 14 15 15 16 17 19 19 18 17 16 17 19 21 24 26 27 26 25 24 23 22 22 22 22 22 22 22 22 23 23 22 21 20 21 25 28 30 30 30 31 31 29 26 21 17 16 17 18 19 18 17 17 17 16 16
11 13 14 15 15 16 16 16 17 18 19 18 15 13 13 13 14 14 15 16 17 17 16 16 16 18 20 22 24 25 24 23 22 21 20 20 21 21 20 20 20 21 22 23 23 22 22 23 25 27 29 30 31 31 30 27 22 17 14 14 15 18 19 18 18 17 17 17 16
11 13 14 14 14 16 17 18 18 19 18 17 14 12 11 11 12 12 12 13 15 16 16 15 15 17 19 20 22 23 22 20 19 18 17 18 18 18 17 17 17 18 20 22 22 22 22 24 25 27 28 30 30 30 27 23 18 14 13 13 15 18 19 18 18 18 18 17 17
11 13 13 14 14 16 18 18 16 15 13 11 9 8 8 9 10 11 11 11 13 14 15 15 15 17 19 20 22 21 20 18 16 15 14 14 14 15 15 15 15 16 18 20 21 21 23 24 25 27 28 29 28 26 23 19 15 14 14 15 17 18 18 18 18 18 18 18 17
10 12 13 14 15 16 16 16 13 10 8 7 6 5 6 7 9 10 10 10 11 13 14 15 15 16 18 21 21 20 18 16 15 14 13 12 13 14 14 14 14 15 16 18 19 21 22 24 25 27 27 27 26 23 20 17 15 16 17 17 17 18 18 18 18 18 18 18 17
8 10 12 15 16 15 14 14 11 8 6 5 4 4 5 6 8 9 9 9 11 13 14 15 15 16 18 21 20 18 16 14 13 13 13 13 14 14 14 14 14 14 16 17 19 20 21 23 25 27 26 25 24 21 19 18 18 18 18 18 18 17 18 18 18 18 18 18 17
6 9 12 15 14 12 12 12 10 8 6 4 5 5 4 4 5 7 7 8 11 13 14 15 15 16 18 19 16 14 13 11 11 12 13 14 14 14 14 14 14 15 16 17 18 18 19 22 25 25 25 23 22 20 20 19 19 19 18 18 17 17 17 17 17 17 17 17 17
6 9 12 12 9 8 10 10 9 8 7 5 6 5 4 3 4 4 5 7 10 13 15 15 15 16 16 15 13 11 9 8 9 11 12 13 13 13 13 14 14 15 16 17 17 17 18 20 23 23 23 21 20 20 20 20 19 18 17 17 17 17 16 16 16 16 15 15 15
7 9 10 9 6 6 7 7 7 7 6 5 6 6 4 3 4 4 4 6 10 13 14 14 13 13 12 12 10 8 7 8 9 10 11 11 12 12 13 14 15 16 17 17 17 17 17 18 20 21 21 20 20 19 19 18 17 16 16 16 16 15 15 14 14 14 13 13 14
9 9 9 8 7 7 7 8 7 6 4 4 6 6 5 4 4 4 5 5 6 8 9 9 9 10 10 10 9 8 8 9 10 11 11 11 12 12 13 15 15 16 17 17 17 16 16 16 16 17 17 17 17 17 16 16 15 15 15 15 15 13 12 11 12 12 12 12 12
9 9 9 9 9 9 9 9 10 8 6 4 6 8 7 5 3 4 5 6 6 6 6 7 8 9 10 10 9 10 10 11 11 12 12 12 12 13 14 15 16 17 18 18 18 17 16 14 13 11 11 11 12 14 15 15 15 15 15 14 12 10 10 10 10 11 11 11 11
8 9 9 10 10 10 11 11 12 11 9 7 7 8 8 7 5 6 7 9 10 10 10 10 11 11 11 11 11 12 12 12 12 12 12 13 13 14 15 16 17 18 18 19 20 19 16 13 10 8 8 9 12 14 15 15 15 14 13 12 10 10 10 11 11 11 11 11 10
7 7 9 10 11 11 11 12 13 12 11 9 9 9 10 10 9 10 11 13 14 14 14 13 13 13 13 13 14 13 13 13 12 12 13 13 14 15 16 16 17 17 19 21 21 18 15 11 9 9 10 13 15 16 16 15 14 13 11 10 11 12 13 14 15 14 13 12 12
7 7 8 9 9 10 11 13 14 13 12 11 11 12 12 13 13 14 15 16 16 16 15 15 14 14 15 15 15 14 13 12 11 12 12 14 14 15 15 16 16 18 20 21 19 17 14 12 12 13 14 16 17 16 15 14 13 12 12 13 13 15 16 17 17 16 15 15 15
6 7 8 7 7 8 10 12 13 13 13 13 13 13 14 14 14 15 15 15 15 14 14 14 15 16 16 16 15 14 12 11 11 12 13 13 14 14 15 15 17 19 20 20 18 17 16 16 16 16 17 17 16 15 14 13 13 15 16 17 17 18 17 17 16 15 14 15 15
7 8 7 5 5 8 10 11 12 12 12 12 13 13 13 13 13 12 12 12 12 12 12 13 14 15 15 14 14 13 12 12 12 13 13 14 15 15 15 17 19 20 21 20 19 19 19 18 18 18 17 16 15 14 13 14 16 18 19 19 19 18 17 16 15 15 14 14 14
7 8 7 5 2 7 11 12 12 12 12 12 12 12 13 12 12 11 10 10 10 11 11 12 13 14 14 13 12 12 12 13 14 14 15 15 16 17 18 19 21 22 21 21 21 20 20 19 18 18 17 15 15 14 15 16 18 19 20 19 18 17 16 16 15 15 15 14 14
6 6 7 6 2 6 11 13 13 12 12 12 12 12 12 12 11 10 10 9 10 10 11 12 12 12 12 11 11 12 13 14 14 15 15 16 18 19 20 21 22 23 23 22 21 20 19 18 18 17 16 15 15 16 17 19 20 20 20 19 18 17 16 15 15 14 14 14 14
5 5 6 6 3 2 7 9 10 10 10 10 10 10 10 9 8 7 6 7 8 9 10 11 12 12 11 12 13 14 14 13 13 14 15 16 17 19 20 21 22 23 22 22 20 19 18 17 16 16 16 17 17 18 19 20 20 20 19 19 18 17 16 15 14 14 13 13 13
4 4 5 5 4 2 2 4 5 6 6 7 7 7 6 5 4 4 5 6 7 9 10 11 11 12 12 14 15 14 13 12 12 12 12 13 14 16 18 19 20 20 21 21 20 19 18 17 17 17 18 19 20 20 21 21 20 20 19 18 18 17 16 15 14 13 13 12 12
3 3 3 3 3 2 0 2 3 4 5 4 4 3 3 3 4 5 6 8 9 11 12 12 12 13 14 15 14 13 12 11 11 10 10 10 11 13 15 17 18 19 19 20 19 19 18 18 18 19 20 21 21 21 21 20 20 19 18 17 16 16 15 15 14 13 12 12 11
5 4 3 2 3 3 2 2 3 4 3 2 2 3 4 5 6 7 9 10 12 13 13 14 15 16 17 16 15 14 13 11 11 11 11 12 12 13 15 17 18 18 17 17 17 18 19 19 19 20 20 20 20 20 20 19 18 17 16 15 14 14 14 14 13 12 12 11 11
5 4 3 3 3 3 3 4 5 5 4 4 5 6 7 7 9 10 12 13 14 16 17 18 19 18 18 17 16 16 15 14 14 14 15 15 15 15 15 15 15 14 13 14 15 17 18 19 19 18 18 18 18 18 18 17 16 15 14 13 13 13 12 12 11 11 11 12 12
2 2 3 4 4 4 5 6 7 8 8 8 8 9 10 11 13 14 15 16 17 18 18 19 18 18 18 17 17 16 15 15 16 16 17 17 16 15 15 14 14 13 12 12 14 15 17 17 17 17 16 16 16 16 16 15 14 13 13 12 11 11 10 10 10 11 12 12 12
2 3 4 5 5 6 7 9 10 11 10 10 11 13 14 15 16 17 17 17 17 17 17 17 17 17 16 16 15 15 15 15 16 17 17 17 17 16 15 14 14 13 12 12 13 14 15 15 15 15 15 15 15 15 14 13 13 12 12 11 10 10 9 10 11 11 11 11 11
3 4 5 5 6 7 9 11 12 13 14 14 15 16 17 17 17 17 17 17 16 16 16 15 15 15 14 13 13 13 14 15 16 17 17 16 16 15 15 14 14 13 13 12 13 13 14 14 14 14 14 14 14 14 13 13 13 13 13 12 11 11 10 10 10 10 10 11 11
3 3 4 5 7 10 13 15 17 18 18 17 17 16 15 15 15 16 16 17 16 16 15 14 13 13 12 11 11 12 13 14 15 15 15 15 15 14 14 13 13 13 12 12 12 12 13 13 13 14 13 13 13 13 13 13 14 14 14 13 12 12 11 10 10 10 10 10 10
3 3 5 9 12 15 18 20 22 22 20 19 18 16 14 13 12 12 13 14 14 13 12 12 11 11 10 10 10 11 12 12 12 13 13 13 13 13 13 13 12 12 12 12 12 12 13 13 13 13 13 13 13 13 14 13 13 13 13 12 12 11 10 10 9 9 9 9 9
4 6 9 11 14 17 20 22 24 23 21 20 18 16 14 13 11 10 10 10 10 10 9 9 10 10 10 10 10 10 10 10 10 10 11 12 12 12 12 12 12 13 13 13 13 13 13 14 14 15 15 15 14 14 13 12 11 10 10 10 10 10 10 10 10 9 9 8 7
6 8 10 12 13 15 17 20 22 22 21 19 18 17 16 14 13 11 9 9 9 9 9 9 9 10 10 10 10 10 10 9 9 10 10 11 12 12 13 13 14 15 15 15 15 14 14 15 15 16 15 15 14 13 12 11 10 10 10 10 11 11 10 10 9 8 7 7 7
12 14 14 13 12 12 13 16 18 19 19 19 19 19 18 16 14 12 11 10 10 9 10 10 11 11 11 11 10 10 10 10 10 10 11 12 12 13 13 14 15 15 16 16 16 15 15 14 14 13 13 12 12 11 12 12 12 12 12 12 11 11 11 9 8 7 7 7 6
18 18 17 16 14 12 11 12 14 16 17 18 19 18 17 16 15 13 12 11 10 10 10 11 12 12 13 12 12 12 11 11 9 9 10 13 14 14 14 14 13 13 13 14 15 15 14 13 12 11 11 11 11 12 12 13 14 13 12 11 10 10 10 9 8 7 7 7 6
19 18 17 17 15 12 9 9 11 14 15 15 16 16 16 15 14 13 12 12 11 10 10 10 10 11 12 12 12 12 12 11 9 8 9 12 14 14 14 13 11 10 10 11 12 12 12 12 11 11 11 11 11 12 12 12 12 12 11 10 10 9 9 9 8 8 7 6 6
18 17 17 16 14 11 9 8 10 11 11 12 12 13 13 14 14 14 13 12 11 10 10 10 10 10 10 11 11 11 12 12 11 10 9 10 12 13 13 12 10 9 9 9 10 11 12 12 11 11 11 11 10 10 10 10 10 10 10 9 9 9 8 8 8 7 6 5 5
Wind_Direction
261 257 251 243 237 233 232 234 238 241 240 236 230 227 225 224 219 214 212 214 217 214 200 185 186 193 199 201 202 202 203 205 208 209 209 207 207 210 214 217 218 217 215 214 217 216 209 198 194 196 202 207 210 211 211 211 211 211 213 218 222 224 225 225 226 226 227 228 230
259 255 248 241 235 233 233 236 240 241 240 236 232 229 227 225 220 214 210 208 210 210 203 194 192 195 199 201 202 203 205 207 208 208 206 206 208 212 216 218 219 217 216 215 219 217 207 194 187 187 194 202 207 211 212 214 214 214 215 218 222 224 225 226 227 228 228 229 229
258 252 245 238 233 231 233 238 240 239 237 234 232 230 227 224 220 215 210 207 205 203 201 198 198 200 201 201 202 203 205 206 205 204 203 204 209 213 217 219 219 218 218 218 220 218 209 196 188 185 187 194 201 207 211 214 216 217 218 219 222 224 225 226 226 227 227 227 227
254 248 242 236 231 232 235 239 239 236 233 231 230 229 226 222 219 216 213 210 206 201 195 192 195 199 202 202 202 201 201 202 201 200 201 205 210 215 217 218 220 220 220 220 221 219 212 203 195 190 187 190 196 202 207 211 215 217 218 219 221 224 225 225 225 225 224 224 224
249 244 240 236 233 235 237 236 235 232 230 230 229 226 222 220 218 216 215 215 213 207 199 191 189 193 199 202 201 200 198 198 199 200 203 208 212 215 217 219 221 221 222 222 222 220 216 210 205 199 194 194 198 203 207 211 213 214 214 215 218 222 224 224 224 223 222 222 222
247 243 240 238 237 236 236 233 231 228 229 232 229 222 217 218 218 216 214 216 218 218 212 200 189 188 192 198 200 199 198 199 201 204 206 210 214 216 219 221 222 224 224 225 224 222 219 217 212 207 203 202 204 208 211 213 215 215 213 211 213 217 221 223 223 223 222 222 222
248 245 242 240 239 240 240 238 233 228 227 230 226 220 218 219 220 217 212 212 218 222 220 208 192 187 188 192 197 199 200 201 204 206 209 212 215 218 220 223 225 227 228 227 226 225 223 221 216 211 208 207 210 212 214 215 217 217 215 210 209 213 218 222 224 225 224 223 223
251 248 244 242 243 247 249 246 238 230 226 224 223 224 224 223 221 216 210 208 213 220 220 208 195 188 186 188 194 198 201 202 204 206 209 214 218 220 222 225 227 230 231 230 228 227 226 222 217 212 210 210 213 215 216 216 217 219 217 211 208 211 217 222 225 227 227 226 226
251 248 245 243 246 251 252 246 236 228 222 219 222 230 235 229 223 217 211 206 209 214 214 205 195 189 185 186 189 195 200 202 203 206 210 215 219 222 224 225 229 232 234 233 230 227 224 219 214 211 210 212 215 217 217 216 217 218 216 210 208 213 219 225 228 230 230 229 227
249 247 244 243 245 245 242 237 230 223 218 219 227 238 242 236 228 222 216 209 206 206 205 199 193 188 185 182 183 191 200 203 204 206 210 215 219 221 222 223 227 232 235 234 230 225 219 213 209 208 210 213 216 216 216 215 216 216 213 209 210 216 222 227 231 232 232 230 227
246 245 243 242 241 237 234 232 228 220 216 219 230 239 240 236 229 223 216 209 202 198 194 191 190 188 183 177 181 191 201 205 205 207 211 215 217 218 218 218 221 228 233 233 228 220 213 207 205 206 209 212 213 213 212 213 214 213 211 210 213 219 225 230 233 233 232 230 227
243 244 243 242 242 241 238 234 229 222 213 212 215 225 231 229 223 216 208 198 194 192 189 185 184 182 178 175 183 194 204 206 207 210 214 216 216 214 213 213 217 224 228 229 224 216 208 203 204 206 207 208 207 207 208 209 209 210 211 212 217 223 229 233 235 235 233 231 226
243 245 246 247 249 244 235 228 225 221 214 209 214 224 228 222 215 208 199 186 186 189 190 185 179 174 174 177 188 199 206 208 211 214 217 216 214 211 210 211 215 220 222 222 217 211 206 205 206 205 203 201 201 201 203 206 208 210 212 216 221 227 232 235 236 235 233 230 225
249 254 257 259 251 236 222 218 220 224 229 234 239 235 222 204 202 202 194 182 181 186 187 182 175 171 174 182 193 202 207 211 215 219 219 216 211 208 209 212 215 217 217 215 211 209 208 208 207 203 199 196 196 198 202 206 209 212 216 221 227 233 236 237 236 234 230 227 223
251 261 269 275 260 234 221 220 226 234 243 252 253 244 223 172 172 190 195 180 174 176 179 177 172 173 179 189 199 206 211 216 221 223 220 214 208 206 209 214 216 215 212 209 208 210 212 212 207 201 196 193 194 199 204 208 212 215 221 227 233 237 239 237 233 229 224 220 216
249 258 268 277 268 248 236 230 228 232 241 254 262 258 238 171 155 176 192 182 165 163 168 172 174 178 187 198 207 214 220 223 226 225 220 213 208 208 211 216 218 215 210 207 208 212 214 212 206 200 195 194 197 202 207 210 215 220 225 232 237 239 238 232 225 218 214 211 208
253 255 257 257 248 239 236 233 226 219 222 257 275 271 252 208 173 172 189 196 171 163 167 180 190 199 207 214 222 227 228 227 227 226 223 217 214 214 217 220 220 215 209 206 206 206 204 199 196 195 196 198 202 206 210 213 218 223 228 232 235 234 228 219 211 206 204 203 202
260 259 255 249 243 239 236 232 225 215 209 237 267 270 262 244 212 190 202 227 233 230 226 228 229 230 231 235 239 238 232 227 225 225 224 223 222 222 224 224 223 217 210 202 198 193 186 180 181 187 196 204 210 212 213 215 220 224 227 228 226 219 210 204 203 202 202 203 204
263 263 261 256 252 248 241 231 221 211 205 212 241 257 259 253 240 224 223 234 245 251 253 250 247 246 246 247 247 243 235 227 225 225 227 227 228 227 227 225 223 216 206 194 187 182 178 175 178 188 201 208 211 211 211 215 220 222 220 214 205 198 195 197 198 200 202 205 205
260 264 266 266 261 252 239 225 213 206 202 207 222 236 243 242 236 229 228 231 237 242 246 248 248 249 248 248 247 243 236 230 228 229 230 230 228 226 224 221 217 208 196 184 179 179 180 182 187 197 204 205 204 204 207 212 215 212 204 194 191 192 193 194 192 191 192 195 196
260 271 278 276 265 248 228 214 206 204 205 210 218 226 232 236 235 233 232 233 235 237 239 242 243 244 244 244 243 241 237 233 232 231 229 226 222 217 213 209 202 192 183 178 179 182 186 189 193 197 200 199 196 198 202 206 201 193 189 191 194 195 195 192 187 185 186 190 193
281 296 297 286 261 233 216 208 206 208 211 215 220 225 230 235 237 237 236 234 233 233 234 236 238 239 239 240 240 238 236 233 229 225 221 214 206 200 196 191 184 178 176 178 182 186 189 190 191 192 192 189 189 192 196 193 187 187 191 195 196 196 194 191 188 188 191 197 200
308 311 311 306 249 220 211 209 210 212 214 216 218 222 227 231 233 232 230 227 226 226 227 230 233 235 237 238 239 237 232 225 217 211 204 195 186 182 179 177 174 174 177 182 186 189 189 187 186 185 183 181 184 187 187 184 187 191 195 197 197 197 196 196 197 200 204 208 212
309 316 328 344 250 214 212 212 213 213 212 212 212 215 219 222 222 220 217 215 216 218 222 227 231 235 238 239 237 230 220 211 202 195 186 179 172 170 170 172 173 176 181 186 189 189 186 183 181 179 178 177 179 180 181 186 192 196 198 200 199 199 201 205 209 213 215 217 220
302 318 335 348 304 213 210 213 213 212 209 207 208 209 212 214 215 214 210 207 210 214 221 227 233 236 237 232 222 212 203 196 189 180 173 167 165 166 169 172 176 180 185 189 191 188 184 180 177 174 172 173 174 177 184 192 197 199 200 202 203 205 209 214 218 221 222 223 226
291 311 331 344 348 204 197 204 206 204 202 201 203 205 206 208 210 212 212 213 215 219 225 231 233 230 221 207 198 191 186 180 174 167 162 160 162 165 169 174 179 184 189 193 193 189 181 175 172 170 170 171 175 182 189 195 199 201 203 204 207 212 217 221 224 226 228 229 230
279 305 327 341 354 31 150 173 183 188 193 198 202 202 200 199 207 220 229 229 227 226 227 228 222 208 191 179 174 171 168 165 161 157 156 158 163 167 172 177 183 189 194 197 194 185 174 168 168 170 173 175 181 187 193 198 201 204 206 209 213 217 222 226 229 231 232 232 230
259 276 301 321 330 340 75 168 189 201 208 212 214 211 207 209 219 225 226 224 221 219 215 208 193 174 159 150 147 147 149 150 151 152 156 163 170 174 179 184 190 195 199 198 189 177 168 166 171 176 180 183 188 193 198 202 205 209 212 215 219 223 226 229 231 233 233 232 229
239 231 229 252 270 273 258 230 227 230 234 244 253 246 235 225 217 212 209 207 203 198 188 174 160 148 139 132 131 133 138 144 150 157 164 171 176 180 184 188 192 195 197 192 180 170 167 172 179 185 189 193 197 200 204 208 212 215 219 221 225 227 228 229 229 229 230 230 229
235 222 214 233 252 251 236 226 231 241 251 253 240 229 218 205 194 188 185 182 177 170 161 153 146 141 137 136 138 142 147 154 160 166 169 171 172 174 177 180 181 182 182 178 172 170 174 180 187 193 199 203 206 208 211 215 219 222 225 227 229 229 227 224 222 222 225 227 230
245 240 243 246 246 235 224 220 222 227 228 222 209 196 184 175 169 166 164 160 156 152 150 148 146 145 145 146 149 153 159 164 168 170 169 169 168 168 168 166 165 166 168 172 175 179 185 191 197 202 206 210 213 216 219 222 224 227 229 231 231 228 222 218 217 218 221 224 228
268 263 258 257 248 234 221 213 207 201 193 181 170 161 156 152 150 150 150 151 149 148 148 148 148 147 148 150 154 160 166 171 173 173 172 172 171 170 169 166 165 167 172 178 185 191 196 200 204 208 211 214 217 220 223 225 227 228 229 229 227 223 219 216 214 214 216 219 223
260 267 265 253 231 210 196 186 177 168 160 153 148 143 140 137 136 138 142 148 149 149 148 148 147 147 148 150 155 164 172 178 179 179 178 178 178 177 175 173 174 176 181 186 191 196 199 202 205 208 210 213 215 218 220 223 224 224 221 218 214 211 210 209 209 209 211 213 217
240 254 244 205 178 167 161 158 154 149 143 138 134 132 130 128 129 134 140 146 148 148 147 146 146 145 145 147 159 172 180 185 186 186 185 184 184 182 181 180 180 183 186 189 192 194 195 198 200 202 203 205 207 210 215 218 219 215 209 203 199 198 199 201 202 204 207 210 214
203 192 174 157 148 146 146 145 143 138 132 125 123 123 126 131 135 139 144 148 151 152 150 147 145 144 147 155 169 180 186 188 188 187 186 185 185 184 183 182 183 185 187 188 188 188 189 192 195 197 198 199 201 206 211 213 210 203 195 190 190 193 198 201 203 205 208 213 217
168 159 149 137 133 135 137 138 137 133 128 125 126 130 137 146 152 154 156 160 166 167 165 159 155 155 161 168 176 182 185 185 184 183 183 183 183 183 183 184 186 187 188 188 188 187 189 194 199 201 202 203 205 207 207 204 199 193 191 191 194 200 206 208 208 209 211 216 223
135 131 124 118 121 127 132 134 134 133 133 136 141 147 153 158 163 167 173 180 183 183 179 174 171 170 170 172 175 179 181 182 183 184 185 185 184 184 185 188 191 193 192 192 191 192 196 201 205 206 205 205 206 206 205 204 204 204 203 203 204 206 207 207 207 207 209 216 223
118 110 104 103 108 117 126 133 138 141 144 148 153 157 161 164 167 172 179 186 190 188 184 182 180 178 175 173 175 177 181 184 189 190 188 187 187 188 191 194 193 191 189 188 188 191 196 200 202 202 201 202 204 207 209 210 210 208 206 207 207 206 203 200 199 202 207 214 220
114 106 101 98 100 107 120 137 149 155 158 160 162 165 167 169 171 174 179 185 188 189 187 185 182 178 176 176 178 180 183 185 188 185 180 179 182 187 193 194 187 178 173 175 177 182 187 193 196 199 200 203 207 210 212 210 205 201 200 204 205 202 196 191 193 201 210 214 216
119 113 107 104 103 107 123 150 165 169 169 168 170 172 175 177 178 179 180 183 186 189 191 189 182 175 173 173 175 176 176 173 169 164 162 165 171 179 186 189 182 171 162 162 165 173 182 191 197 201 204 205 207 208 207 204 200 199 201 204 202 196 190 187 193 203 212 215 213
132 129 125 121 119 124 142 169 181 179 171 164 165 170 176 181 185 186 185 184 186 190 194 194 184 173 167 166 165 165 163 159 153 150 151 156 163 170 177 184 187 184 176 169 170 177 186 194 199 201 202 201 200 200 200 200 200 202 204 201 194 189 188 189 195 203 210 211 205
Height
1416 1416 1416 1416 1416 1417 1418 1420 1420 1420 1420 1420 1420 1419 1419 1421 1422 1424 1425 1426 1426 1425 1425 1425 1427 1429 1431 1432 1434 1436 1437 1439 1441 1443 1445 1446 1447 1448 1450 1451 1452 1454 1456 1457 1459 1460 1460 1461 1462 1463 1464 1465 1466 1467 1468 1469 1470 1471 1472 1474 1476 1477 1478 1478 1479 1479 1480 1480 1481
1414 1414 1414 1415 1415 1416 1417 1419 1419 1419 1419 1419 1418 1418 1419 1421 1422 1423 1424 1425 1426 1425 1425 1426 1426 1428 1430 1432 1433 1435 1437 1439 1441 1442 1444 1445 1446 1448 1449 1450 1451 1453 1455 1456 1458 1459 1460 1460 1461 1462 1463 1464 1465 1466 1467 1468 1469 1470 1471 1473 1475 1476 1477 1477 1478 1478 1479 1480 1480
1413 1413 1413 1414 1415 1416 1417 1418 1418 1418 1418 1417 1417 1418 1419 1420 1422 1423 1423 1424 1424 1425 1425 1425 1426 1428 1430 1431 1433 1435 1436 1438 1440 1441 1442 1444 1446 1447 1448 1449 1451 1452 1454 1456 1457 1458 1459 1459 1460 1461 1462 1464 1465 1466 1466 1467 1468 1469 1470 1471 1474 1475 1476 1476 1477 1478 1478 1479 1479
1412 1412 1412 1413 1414 1415 1416 1416 1416 1416 1416 1416 1416 1417 1419 1420 1421 1422 1422 1423 1423 1423 1424 1424 1426 1427 1429 1430 1432 1434 1436 1438 1439 1440 1441 1443 1445 1446 1447 1449 1450 1452 1453 1455 1456 1457 1459 1459 1460 1460 1461 1463 1464 1465 1466 1466 1467 1468 1470 1471 1473 1474 1475 1476 1476 1477 1478 1478 1478
1411 1411 1412 1413 1414 1414 1415 1415 1415 1415 1415 1415 1415 1417 1419 1420 1420 1421 1421 1421 1422 1422 1423 1424 1425 1427 1428 1429 1431 1433 1436 1437 1438 1440 1441 1442 1444 1445 1447 1448 1449 1451 1452 1454 1455 1457 1458 1459 1459 1460 1461 1461 1463 1464 1465 1466 1466 1467 1469 1470 1472 1473 1474 1475 1476 1476 1477 1477 1478
1411 1411 1412 1413 1413 1414 1414 1414 1414 1414 1413 1413 1414 1416 1418 1419 1420 1420 1421 1421 1421 1422 1422 1423 1424 1426 1427 1428 1431 1433 1435 1436 1437 1439 1441 1442 1443 1445 1446 1447 1449 1450 1452 1453 1454 1456 1457 1458 1459 1459 1460 1461 1462 1463 1464 1465 1466 1467 1468 1469 1471 1472 1473 1474 1475 1476 1476 1476 1477
1411 1411 1412 1412 1413 1413 1413 1413 1413 1412 1412 1412 1414 1416 1417 1418 1419 1420 1421 1421 1421 1422 1422 1423 1424 1425 1426 1428 1430 1432 1434 1436 1437 1438 1440 1441 1443 1444 1445 1446 1448 1449 1451 1452 1453 1455 1456 1457 1458 1458 1459 1460 1461 1462 1464 1464 1465 1466 1467 1468 1469 1471 1473 1473 1474 1475 1475 1476 1476
1411 1411 1411 1412 1412 1412 1412 1412 1412 1412 1412 1412 1413 1415 1416 1418 1419 1420 1421 1421 1421 1422 1422 1423 1424 1425 1426 1428 1429 1431 1433 1435 1436 1438 1440 1441 1442 1443 1444 1446 1447 1448 1450 1451 1452 1453 1455 1456 1456 1457 1458 1460 1461 1461 1463 1464 1465 1466 1467 1467 1468 1470 1472 1473 1473 1474 1475 1475 1476
1411 1411 1411 1411 1412 1412 1412 1413 1413 1413 1412 1412 1413 1414 1416 1418 1419 1420 1421 1421 1422 1422 1422 1423 1424 1425 1426 1427 1428 1430 1432 1434 1436 1437 1439 1440 1441 1442 1443 1445 1446 1447 1449 1450 1451 1452 1453 1455 1455 1456 1457 1459 1460 1461 1461 1463 1464 1465 1466 1467 1468 1470 1471 1472 1473 1473 1474 1475 1475
1411 1411 1411 1411 1412 1412 1412 1413 1413 1413 1413 1412 1413 1414 1416 1417 1419 1420 1421 1421 1422 1422 1422 1423 1424 1425 1426 1427 1429 1430 1432 1433 1435 1437 1438 1439 1441 1441 1443 1444 1445 1446 1448 1449 1450 1451 1452 1453 1454 1456 1457 1458 1459 1460 1461 1462 1463 1464 1466 1466 1468 1469 1471 1471 1472 1473 1473 1474 1475
1411 1411 1411 1412 1412 1412 1413 1413 1413 1413 1412 1412 1413 1415 1416 1417 1418 1419 1420 1421 1422 1422 1422 1423 1424 1425 1426 1428 1430 1431 1432 1433 1435 1436 1438 1439 1440 1441 1442 1443 1444 1446 1447 1448 1449 1450 1451 1452 1453 1455 1456 1457 1458 1459 1460 1461 1462 1464 1465 1466 1468 1469 1470 1471 1471 1472 1472 1473 1474
1411 1411 1411 1412 1412 1413 1413 1413 1413 1412 1412 1413 1414 1415 1416 1417 1418 1419 1420 1421 1421 1422 1423 1424 1425 1426 1427 1428 1430 1431 1432 1433 1435 1436 1437 1438 1439 1440 1441 1442 1443 1445 1446 1447 1448 1449 1450 1451 1452 1454 1455 1456 1457 1458 1459 1461 1462 1464 1465 1466 1467 1468 1469 1470 1471 1471 1472 1472 1473
1412 1412 1412 1412 1412 1413 1413 1413 1413 1413 1413 1413 1414 1415 1416 1417 1419 1419 1420 1421 1422 1422 1423 1424 1425 1426 1427 1428 1429 1431 1432 1433 1434 1436 1436 1438 1438 1439 1440 1441 1442 1444 1445 1446 1448 1449 1450 1451 1452 1453 1454 1455 1456 1457 1459 1461 1462 1464 1465 1466 1467 1468 1469 1469 1470 1471 1471 1472 1473
1413 1413 1413 1412 1412 1412 1412 1413 1413 1413 1413 1414 1414 1415 1416 1417 1418 1419 1420 1421 1421 1422 1423 1424 1425 1426 1427 1428 1429 1431 1432 1433 1434 1435 1436 1437 1437 1438 1439 1441 1442 1443 1444 1446 1447 1448 1449 1451 1451 1452 1453 1455 1456 1457 1459 1461 1463 1464 1465 1466 1466 1467 1468 1468 1469 1470 1470 1471 1472
1413 1413 1413 1412 1412 1412 1413 1414 1413 1413 1414 1414 1415 1416 1416 1416 1417 1419 1420 1421 1421 1422 1423 1424 1425 1426 1427 1428 1430 1431 1432 1433 1434 1434 1435 1436 1437 1438 1439 1440 1441 1442 1444 1445 1446 1448 1449 1450 1451 1452 1453 1455 1456 1458 1460 1461 1463 1464 1465 1465 1466 1466 1467 1468 1468 1469 1470 1471 1471
1414 1414 1413 1413 1413 1414 1414 1414 1414 1414 1415 1415 1415 1416 1416 1416 1418 1419 1421 1421 1421 1422 1423 1424 1425 1426 1427 1429 1430 1431 1431 1432 1433 1434 1434 1435 1436 1437 1438 1439 1441 1442 1443 1445 1446 1448 1449 1450 1451 1452 1454 1455 1457 1459 1460 1461 1463 1464 1464 1465 1465 1466 1467 1467 1468 1469 1469 1470 1471
1414 1414 1414 1414 1414 1414 1414 1414 1415 1415 1415 1416 1416 1416 1417 1417 1418 1420 1421 1421 1422 1422 1424 1425 1426 1426 1427 1428 1429 1430 1431 1431 1432 1433 1434 1435 1436 1436 1437 1439 1440 1441 1443 1445 1446 1448 1449 1451 1452 1453 1454 1456 1457 1459 1460 1461 1462 1463 1464 1465 1465 1466 1466 1467 1468 1468 1469 1470 1471
1414 1414 1415 1415 1415 1414 1414 1415 1415 1415 1416 1416 1416 1417 1418 1419 1420 1420 1421 1422 1422 1423 1424 1425 1426 1426 1427 1428 1429 1430 1430 1431 1432 1432 1433 1434 1435 1436 1437 1438 1440 1441 1442 1444 1446 1447 1449 1451 1452 1453 1454 1456 1457 1458 1460 1461 1462 1463 1464 1465 1465 1466 1466 1467 1468 1468 1469 1470 1471
1415 1415 1415 1415 1415 1415 1415 1415 1415 1415 1416 1416 1416 1417 1418 1420 1421 1421 1422 1422 1423 1423 1424 1424 1425 1426 1427 1427 1428 1429 1430 1430 1431 1432 1433 1434 1435 1436 1437 1438 1439 1440 1442 1443 1445 1447 1449 1450 1451 1452 1454 1455 1456 1458 1459 1461 1462 1463 1464 1465 1466 1466 1467 1467 1468 1469 1469 1470 1471
1415 1415 1415 1415 1415 1415 1415 1415 1415 1416 1416 1416 1417 1418 1419 1420 1421 1421 1422 1422 1423 1423 1424 1424 1425 1426 1426 1427 1428 1429 1429 1430 1431 1431 1432 1433 1434 1435 1436 1437 1438 1440 1441 1443 1445 1446 1448 1449 1451 1452 1453 1455 1456 1457 1459 1461 1462 1463 1464 1465 1466 1467 1467 1467 1468 1468 1469 1470 1471
1415 1415 1415 1415 1415 1415 1415 1415 1415 1416 1416 1417 1418 1418 1419 1420 1421 1421 1422 1422 1423 1423 1424 1424 1425 1426 1426 1427 1428 1429 1429 1430 1430 1431 1432 1433 1434 1435 1436 1436 1438 1439 1441 1443 1445 1446 1447 1449 1450 1451 1452 1454 1456 1457 1459 1461 1462 1463 1465 1466 1466 1466 1466 1466 1467 1467 1468 1469 1470
1415 1415 1415 1414 1414 1414 1415 1415 1416 1416 1417 1417 1418 1419 1419 1420 1420 1421 1422 1422 1423 1423 1424 1424 1425 1425 1426 1427 1428 1428 1429 1429 1430 1431 1431 1432 1433 1434 1435 1436 1438 1440 1441 1443 1445 1446 1447 1449 1450 1451 1452 1454 1456 1458 1460 1461 1462 1463 1464 1464 1465 1465 1465 1466 1466 1467 1468 1469 1469
1415 1415 1414 1414 1414 1414 1415 1415 1416 1416 1417 1418 1418 1419 1419 1420 1420 1421 1421 1422 1423 1423 1424 1424 1424 1425 1426 1427 1427 1428 1428 1429 1430 1431 1431 1432 1433 1434 1435 1437 1438 1440 1442 1443 1445 1446 1447 1449 1450 1451 1453 1454 1456 1458 1460 1461 1461 1462 1463 1463 1464 1464 1465 1466 1467 1468 1468 1469 1469
1416 1415 1415 1415 1415 1415 1415 1416 1416 1417 1417 1418 1418 1419 1419 1420 1420 1421 1421 1422 1423 1423 1424 1424 1425 1425 1426 1426 1427 1427 1428 1429 1429 1430 1431 1432 1433 1434 1436 1437 1439 1441 1442 1444 1445 1446 1447 1449 1450 1451 1453 1455 1456 1458 1459 1460 1461 1461 1462 1463 1464 1464 1465 1466 1467 1467 1468 1469 1469
1416 1416 1416 1415 1415 1415 1416 1416 1416 1417 1417 1418 1418 1419 1419 1420 1420 1421 1421 1422 1423 1423 1424 1424 1424 1425 1426 1426 1427 1427 1428 1428 1429 1430 1431 1432 1433 1434 1436 1438 1440 1441 1443 1444 1445 1446 1448 1449 1450 1451 1453 1455 1457 1458 1458 1459 1460 1461 1462 1463 1464 1464 1465 1466 1466 1467 1468 1468 1469
1416 1416 1416 1416 1416 1416 1416 1416 1416 1417 1417 1418 1418 1419 1419 1420 1420 1421 1421 1422 1422 1423 1423 1424 1424 1425 1426 1426 1427 1427 1428 1429 1429 1430 1431 1432 1433 1435 1436 1438 1440 1441 1442 1444 1445 1446 1448 1449 1450 1452 1454 1455 1456 1457 1457 1458 1460 1461 1462 1463 1463 1464 1465 1465 1466 1466 1467 1468 1468
1417 1416 1416 1416 1416 1416 1416 1416 1417 1417 1418 1418 1418 1419 1419 1420 1420 1421 1421 1422 1422 1423 1423 1423 1424 1425 1426 1426 1427 1428 1429 1429 1430 1431 1432 1433 1434 1436 1437 1439 1440 1441 1443 1444 1445 1446 1447 1449 1451 1452 1454 1455 1455 1456 1457 1458 1459 1460 1461 1462 1463 1464 1465 1465 1466 1466 1466 1467 1467
1417 1417 1417 1417 1417 1417 1417 1417 1417 1417 1418 1418 1419 1419 1419 1420 1420 1421 1421 1422 1422 1423 1423 1424 1425 1426 1426 1427 1427 1428 1429 1430 1431 1432 1433 1435 1436 1437 1438 1439 1441 1442 1443 1444 1445 1446 1447 1449 1451 1452 1453 1454 1455 1456 1456 1458 1459 1460 1461 1462 1463 1463 1464 1465 1465 1466 1466 1466 1467
1417 1417 1418 1418 1417 1417 1417 1417 1418 1418 1418 1418 1419 1419 1420 1420 1421 1421 1421 1422 1422 1423 1424 1425 1426 1426 1427 1428 1428 1429 1430 1431 1432 1433 1435 1436 1436 1437 1438 1440 1441 1442 1443 1444 1445 1446 1448 1450 1451 1452 1453 1454 1455 1456 1457 1458 1459 1460 1461 1461 1462 1463 1463 1464 1465 1465 1466 1466 1466
1418 1417 1418 1418 1418 1418 1418 1418 1418 1418 1418 1419 1419 1419 1420 1420 1421 1421 1422 1423 1423 1424 1425 1426 1426 1427 1427 1428 1429 1430 1431 1432 1433 1434 1435 1436 1437 1438 1439 1440 1441 1442 1443 1444 1446 1447 1448 1450 1451 1452 1453 1454 1455 1456 1457 1458 1459 1460 1461 1461 1462 1462 1463 1463 1464 1464 1465 1465 1465
1418 1418 1418 1418 1418 1419 1419 1419 1419 1419 1419 1419 1420 1420 1420 1421 1421 1422 1423 1424 1424 1425 1426 1426 1426 1426 1427 1428 1429 1431 1432 1433 1434 1435 1436 1436 1438 1439 1440 1441 1441 1443 1444 1445 1446 1448 1449 1450 1451 1452 1453 1454 1455 1456 1457 1458 1458 1459 1460 1461 1461 1461 1462 1462 1463 1464 1464 1464 1465
1419 1419 1419 1419 1419 1418 1418 1419 1419 1419 1420 1420 1421 1421 1421 1422 1422 1423 1424 1425 1425 1426 1426 1426 1427 1428 1429 1430 1431 1432 1433 1434 1435 1436 1436 1437 1438 1440 1441 1441 1442 1444 1445 1446 1447 1448 1449 1450 1451 1452 1453 1454 1455 1456 1457 1457 1458 1459 1460 1460 1461 1461 1461 1462 1462 1463 1463 1464 1464
1420 1420 1419 1419 1419 1418 1419 1419 1419 1420 1421 1421 1421 1422 1422 1423 1424 1424 1425 1426 1426 1427 1427 1428 1429 1430 1431 1431 1432 1433 1434 1435 1436 1437 1438 1439 1440 1440 1441 1442 1443 1444 1445 1446 1447 1448 1449 1451 1451 1452 1453 1454 1455 1456 1456 1457 1458 1458 1459 1460 1460 1461 1461 1461 1462 1462 1463 1463 1464
1420 1420 1420 1419 1419 1419 1419 1420 1420 1421 1421 1422 1422 1423 1424 1424 1425 1426 1426 1427 1428 1428 1429 1430 1431 1431 1432 1432 1433 1434 1435 1436 1437 1438 1439 1440 1440 1441 1442 1443 1444 1445 1446 1447 1448 1449 1450 1451 1451 1452 1453 1454 1454 1455 1456 1456 1457 1457 1458 1459 1459 1460 1461 1461 1461 1462 1462 1463 1463
1420 1420 1420 1420 1419 1419 1419 1420 1421 1421 1422 1423 1424 1425 1426 1426 1427 1427 1428 1428 1429 1430 1430 1431 1431 1432 1432 1433 1434 1435 1436 1437 1438 1439 1439 1440 1441 1442 1442 1443 1444 1445 1446 1447 1448 1449 1450 1451 1451 1452 1452 1453 1454 1455 1455 1456 1456 1457 1457 1458 1459 1459 1460 1461 1461 1462 1462 1462 1463
1421 1421 1421 1421 1421 1421 1421 1421 1421 1422 1423 1424 1425 1426 1427 1428 1428 1429 1429 1430 1430 1431 1431 1432 1432 1433 1434 1434 1435 1436 1437 1438 1438 1439 1440 1441 1441 1442 1443 1444 1444 1445 1446 1447 1448 1449 1450 1450 1451 1451 1452 1453 1453 1454 1455 1456 1456 1457 1457 1458 1458 1459 1460 1461 1461 1461 1462 1462 1462
1422 1422 1422 1422 1422 1422 1422 1422 1423 1423 1424 1425 1426 1427 1428 1429 1429 1430 1431 1431 1431 1431 1432 1433 1433 1434 1435 1435 1436 1437 1437 1438 1439 1439 1440 1441 1441 1442 1443 1444 1444 1445 1446 1447 1448 1449 1450 1450 1451 1451 1452 1453 1453 1454 1455 1456 1456 1456 1457 1458 1458 1459 1460 1460 1461 1461 1461 1462 1462
1424 1424 1424 1424 1424 1424 1424 1425 1425 1425 1426 1426 1426 1427 1428 1429 1430 1431 1431 1431 1432 1432 1433 1433 1434 1435 1436 1436 1437 1437 1437 1438 1439 1439 1440 1441 1442 1442 1443 1444 1445 1445 1446 1447 1448 1449 1449 1450 1451 1451 1452 1453 1453 1454 1455 1455 1456 1456 1457 1457 1458 1459 1459 1460 1460 1461 1461 1461 1462
1425 1425 1426 1426 1426 1426 1426 1426 1426 1427 1427 1427 1427 1428 1429 1430 1430 1431 1432 1432 1433 1433 1434 1434 1435 1435 1436 1436 1437 1437 1438 1438 1439 1439 1440 1441 1442 1443 1443 1444 1445 1445 1446 1447 1447 1448 1449 1450 1451 1451 1452 1453 1453 1454 1455 1455 1455 1456 1456 1457 1457 1458 1459 1459 1460 1460 1461 1461 1461
1426 1426 1426 1426 1427 1426 1426 1427 1427 1428 1428 1428 1429 1429 1430 1430 1431 1431 1432 1433 1433 1434 1434 1435 1435 1436 1436 1436 1437 1437 1438 1439 1439 1440 1440 1441 1442 1443 1444 1444 1445 1446 1446 1447 1448 1448 1449 1450 1451 1451 1452 1452 1453 1454 1454 1455 1455 1456 1456 1457 1457 1458 1458 1459 1460 1460 1460 1461 1461
1426 1427 1427 1427 1428 1428 1428 1428 1428 1429 1429 1429 1430 1430 1431 1431 1432 1432 1433 1433 1434 1435 1435 1435 1436 1436 1437 1437 1437 1438 1438 1439 1440 1441 1441 1442 1442 1443 1444 1445 1445 1446 1446 1447 1448 1449 1450 1450 1451 1451 1452 1452 1453 1453 1454 1454 1455 1456 1456 1456 1457 1458 1458 1459 1459 1460 1460 1460 1461